Time,TemperatureF,DewpointF,PressureIn,WindDirection,WindDirectionDegrees,WindSpeedMPH,WindSpeedGustMPH,Humidity,HourlyPrecipIn,Conditions,Clouds,dailyrainin,SoftwareType,DateUTC
2013-02-15 00:11:00,41.8,35.0,30.31,NNE,16,7.0,13.0,77,0.00,,,0.00,weatherlink.com 1.10,2013-02-15 07:11:00,
2013-02-15 00:27:00,40.8,35.0,30.32,NNE,19,9.0,12.0,79,0.00,,,0.00,weatherlink.com 1.10,2013-02-15 07:27:00,
2013-02-15 00:42:00,40.5,34.0,30.33,NNE,27,7.0,13.0,77,0.00,,,0.00,weatherlink.com 1.10,2013-02-15 07:42:00,
2013-02-15 00:57:00,40.0,33.0,30.33,NNE,27,4.0,11.0,77,0.00,,,0.00,weatherlink.com 1.10,2013-02-15 07:57:00,
2013-02-15 01:12:00,39.5,33.0,30.33,NNE,21,9.0,11.0,78,0.00,,,0.00,weatherlink.com 1.10,2013-02-15 08:12:00,
2013-02-15 01:27:00,38.9,33.0,30.33,NNE,20,9.0,10.0,79,0.00,,,0.00,weatherlink.com 1.10,2013-02-15 08:27:00,
2013-02-15 01:42:00,38.2,33.0,30.33,North,4,6.0,9.0,81,0.00,,,0.00,weatherlink.com 1.10,2013-02-15 08:42:00,
2013-02-15 01:57:00,37.5,33.0,30.33,North,4,5.0,9.0,82,0.00,,,0.00,weatherlink.com 1.10,2013-02-15 08:57:00,
2013-02-15 02:12:00,37.1,32.0,30.33,NNE,27,4.0,9.0,83,0.00,,,0.00,weatherlink.com 1.10,2013-02-15 09:12:00,
2013-02-15 02:27:00,37.2,32.0,30.34,NNE,13,7.0,10.0,82,0.00,,,0.00,weatherlink.com 1.10,2013-02-15 09:27:00,
2013-02-15 02:42:00,36.8,32.0,30.34,NNE,12,4.0,9.0,83,0.00,,,0.00,weatherlink.com 1.10,2013-02-15 09:42:00,
2013-02-15 02:57:00,36.5,32.0,30.34,NNW,343,7.0,10.0,83,0.00,,,0.00,weatherlink.com 1.10,2013-02-15 09:57:00,
2013-02-15 03:12:00,36.3,31.0,30.34,NNE,19,5.0,11.0,82,0.00,,,0.00,weatherlink.com 1.10,2013-02-15 10:12:00,
2013-02-15 03:27:00,36.2,31.0,30.35,NE,38,6.0,9.0,80,0.00,,,0.00,weatherlink.com 1.10,2013-02-15 10:27:00,
2013-02-15 03:42:00,36.3,30.0,30.35,NE,37,5.0,9.0,77,0.00,,,0.00,weatherlink.com 1.10,2013-02-15 10:42:00,
2013-02-15 03:57:00,36.7,29.0,30.35,NE,42,5.0,12.0,74,0.00,,,0.00,weatherlink.com 1.10,2013-02-15 10:57:00,
2013-02-15 04:12:00,37.1,28.0,30.36,NNE,30,5.0,11.0,71,0.00,,,0.00,weatherlink.com 1.10,2013-02-15 11:12:00,
2013-02-15 04:27:00,37.0,27.0,30.36,NNE,12,4.0,11.0,68,0.00,,,0.00,weatherlink.com 1.10,2013-02-15 11:27:00,
2013-02-15 04:42:00,37.0,27.0,30.37,NNE,31,5.0,14.0,66,0.00,,,0.00,weatherlink.com 1.10,2013-02-15 11:42:00,
2013-02-15 04:57:00,37.0,26.0,30.38,NNE,33,9.0,14.0,64,0.00,,,0.00,weatherlink.com 1.10,2013-02-15 11:57:00,
2013-02-15 05:12:00,36.6,27.0,30.39,NNE,19,2.0,9.0,69,0.00,,,0.00,weatherlink.com 1.10,2013-02-15 12:12:00,
2013-02-15 05:27:00,36.1,28.0,30.40,North,4,5.0,8.0,72,0.00,,,0.00,weatherlink.com 1.10,2013-02-15 12:27:00,
2013-02-15 05:43:00,35.8,28.0,30.40,NNE,23,3.0,8.0,72,0.00,,,0.00,weatherlink.com 1.10,2013-02-15 12:43:00,
2013-02-15 05:57:00,35.5,28.0,30.41,NNE,22,7.0,7.0,73,0.00,,,0.00,weatherlink.com 1.10,2013-02-15 12:57:00,
2013-02-15 06:13:00,35.1,27.0,30.41,NNE,22,0.0,6.0,73,0.00,,,0.00,weatherlink.com 1.10,2013-02-15 13:13:00,
2013-02-15 06:27:00,35.0,27.0,30.41,NNE,24,2.0,4.0,73,0.00,,,0.00,weatherlink.com 1.10,2013-02-15 13:27:00,
2013-02-15 06:42:00,34.8,26.0,30.42,NNE,33,3.0,8.0,70,0.00,,,0.00,weatherlink.com 1.10,2013-02-15 13:42:00,
2013-02-15 06:58:00,34.6,26.0,30.42,NNE,31,4.0,7.0,70,0.00,,,0.00,weatherlink.com 1.10,2013-02-15 13:58:00,
2013-02-15 07:12:00,34.5,25.0,30.43,NNE,25,8.0,9.0,69,0.00,,,0.00,weatherlink.com 1.10,2013-02-15 14:12:00,
2013-02-15 07:28:00,35.0,24.0,30.44,NNE,23,5.0,9.0,65,0.00,,,0.00,weatherlink.com 1.10,2013-02-15 14:28:00,
2013-02-15 07:43:00,35.9,24.0,30.44,NE,44,3.0,10.0,62,0.00,,,0.00,weatherlink.com 1.10,2013-02-15 14:43:00,
2013-02-15 07:58:00,36.6,23.0,30.45,NNE,26,9.0,13.0,58,0.00,,,0.00,weatherlink.com 1.10,2013-02-15 14:58:00,
2013-02-15 08:13:00,36.4,22.0,30.46,NNE,31,9.0,15.0,56,0.00,,,0.00,weatherlink.com 1.10,2013-02-15 15:13:00,
2013-02-15 08:28:00,36.4,22.0,30.46,North,11,7.0,16.0,57,0.00,,,0.00,weatherlink.com 1.10,2013-02-15 15:28:00,
2013-02-15 08:43:00,37.2,22.0,30.46,NNE,18,9.0,16.0,55,0.00,,,0.00,weatherlink.com 1.10,2013-02-15 15:43:00,
2013-02-15 08:58:00,37.3,22.0,30.46,NNE,22,5.0,14.0,55,0.00,,,0.00,weatherlink.com 1.10,2013-02-15 15:58:00,
2013-02-15 09:13:00,37.2,23.0,30.47,NNE,29,7.0,11.0,57,0.00,,,0.00,weatherlink.com 1.10,2013-02-15 16:13:00,
2013-02-15 09:28:00,37.2,23.0,30.46,NE,52,5.0,11.0,58,0.00,,,0.00,weatherlink.com 1.10,2013-02-15 16:28:00,
2013-02-15 09:43:00,38.2,23.0,30.46,NE,47,6.0,13.0,54,0.00,,,0.00,weatherlink.com 1.10,2013-02-15 16:43:00,
2013-02-15 09:58:00,38.9,22.0,30.47,NE,52,9.0,12.0,51,0.00,,,0.00,weatherlink.com 1.10,2013-02-15 16:58:00,
2013-02-15 10:13:00,39.1,23.0,30.47,NNE,25,10.0,13.0,52,0.00,,,0.00,weatherlink.com 1.10,2013-02-15 17:13:00,
2013-02-15 10:28:00,39.3,23.0,30.47,NNE,17,8.0,12.0,52,0.00,,,0.00,weatherlink.com 1.10,2013-02-15 17:28:00,
2013-02-15 10:43:00,39.6,23.0,30.47,North,10,7.0,12.0,51,0.00,,,0.00,weatherlink.com 1.10,2013-02-15 17:43:00,
2013-02-15 10:58:00,39.7,23.0,30.47,NE,40,5.0,12.0,51,0.00,,,0.00,weatherlink.com 1.10,2013-02-15 17:58:00,
2013-02-15 11:13:00,40.7,24.0,30.46,North,354,9.0,12.0,51,0.00,,,0.00,weatherlink.com 1.10,2013-02-15 18:13:00,
2013-02-15 11:28:00,41.4,23.0,30.46,NE,37,3.0,12.0,48,0.00,,,0.00,weatherlink.com 1.10,2013-02-15 18:28:00,
2013-02-15 11:43:00,41.3,23.0,30.45,NE,45,0.0,12.0,48,0.00,,,0.00,weatherlink.com 1.10,2013-02-15 18:43:00,
2013-02-15 11:58:00,41.8,22.0,30.44,NNE,16,10.0,13.0,46,0.00,,,0.00,weatherlink.com 1.10,2013-02-15 18:58:00,
2013-02-15 12:13:00,42.3,24.0,30.43,NNW,339,1.0,7.0,48,0.00,,,0.00,weatherlink.com 1.10,2013-02-15 19:13:00,
2013-02-15 12:28:00,42.9,24.0,30.42,North,354,5.0,10.0,47,0.00,,,0.00,weatherlink.com 1.10,2013-02-15 19:28:00,
2013-02-15 12:43:00,43.5,24.0,30.42,NE,34,4.0,12.0,47,0.00,,,0.00,weatherlink.com 1.10,2013-02-15 19:43:00,
2013-02-15 12:58:00,43.6,25.0,30.40,NNE,30,7.0,12.0,49,0.00,,,0.00,weatherlink.com 1.10,2013-02-15 19:58:00,
2013-02-15 13:13:00,43.6,24.0,30.39,NNE,25,3.0,10.0,47,0.00,,,0.00,weatherlink.com 1.10,2013-02-15 20:13:00,
2013-02-15 13:29:00,43.6,25.0,30.40,North,354,2.0,6.0,48,0.00,,,0.00,weatherlink.com 1.10,2013-02-15 20:29:00,
2013-02-15 13:43:00,44.5,25.0,30.40,NE,54,5.0,7.0,47,0.00,,,0.00,weatherlink.com 1.10,2013-02-15 20:43:00,
2013-02-15 13:57:00,45.1,25.0,30.39,NNE,16,2.0,2.0,46,0.00,,,0.00,weatherlink.com 1.10,2013-02-15 20:57:00,
2013-02-15 14:14:00,45.1,25.0,30.39,North,354,0.0,4.0,46,0.00,,,0.00,weatherlink.com 1.10,2013-02-15 21:14:00,
2013-02-15 14:28:00,45.8,26.0,30.38,NE,50,0.0,4.0,47,0.00,,,0.00,weatherlink.com 1.10,2013-02-15 21:28:00,
2013-02-15 14:43:00,46.1,26.0,30.38,NW,323,2.0,6.0,45,0.00,,,0.00,weatherlink.com 1.10,2013-02-15 21:43:00,
2013-02-15 14:58:00,46.0,24.0,30.39,North,10,1.0,7.0,43,0.00,,,0.00,weatherlink.com 1.10,2013-02-15 21:58:00,
2013-02-15 15:13:00,46.4,24.0,30.39,NW,320,2.0,8.0,42,0.00,,,0.00,weatherlink.com 1.10,2013-02-15 22:13:00,
2013-02-15 15:28:00,46.3,25.0,30.39,NW,304,3.0,7.0,43,0.00,,,0.00,weatherlink.com 1.10,2013-02-15 22:28:00,
2013-02-15 15:43:00,46.4,25.0,30.39,West,276,4.0,6.0,43,0.00,,,0.00,weatherlink.com 1.10,2013-02-15 22:43:00,
2013-02-15 15:59:00,46.6,24.0,30.40,North,349,4.0,9.0,42,0.00,,,0.00,weatherlink.com 1.10,2013-02-15 22:59:00,
2013-02-15 16:13:00,46.8,23.0,30.39,West,275,0.0,7.0,40,0.00,,,0.00,weatherlink.com 1.10,2013-02-15 23:13:00,
2013-02-15 16:28:00,46.7,25.0,30.39,NNW,328,2.0,10.0,42,0.00,,,0.00,weatherlink.com 1.10,2013-02-15 23:28:00,
2013-02-15 16:43:00,46.0,26.0,30.39,ESE,111,0.0,5.0,45,0.00,,,0.00,weatherlink.com 1.10,2013-02-15 23:43:00,
2013-02-15 16:58:00,45.0,26.0,30.39,ESE,106,2.0,4.0,48,0.00,,,0.00,weatherlink.com 1.10,2013-02-15 23:58:00,
2013-02-15 17:14:00,44.2,26.0,30.39,ESE,113,2.0,5.0,50,0.00,,,0.00,weatherlink.com 1.10,2013-02-16 00:14:00,
2013-02-15 17:28:00,43.0,27.0,30.39,ESE,112,0.0,4.0,53,0.00,,,0.00,weatherlink.com 1.10,2013-02-16 00:28:00,
2013-02-15 17:44:00,42.2,26.0,30.39,ESE,118,5.0,5.0,54,0.00,,,0.00,weatherlink.com 1.10,2013-02-16 00:44:00,
2013-02-15 17:58:00,41.6,26.0,30.39,ESE,120,3.0,7.0,54,0.00,,,0.00,weatherlink.com 1.10,2013-02-16 00:58:00,
2013-02-15 18:13:00,40.9,26.0,30.39,ESE,117,1.0,3.0,55,0.00,,,0.00,weatherlink.com 1.10,2013-02-16 01:13:00,
2013-02-15 18:28:00,39.7,26.0,30.39,ESE,120,2.0,4.0,59,0.00,,,0.00,weatherlink.com 1.10,2013-02-16 01:28:00,
2013-02-15 18:44:00,39.1,26.0,30.39,SE,126,2.0,4.0,59,0.00,,,0.00,weatherlink.com 1.10,2013-02-16 01:44:00,
2013-02-15 18:59:00,38.1,26.0,30.39,SE,141,2.0,4.0,62,0.00,,,0.00,weatherlink.com 1.10,2013-02-16 01:59:00,
2013-02-15 19:13:00,37.5,26.0,30.39,SSE,153,2.0,5.0,63,0.00,,,0.00,weatherlink.com 1.10,2013-02-16 02:13:00,
2013-02-15 19:29:00,37.0,26.0,30.39,SSE,149,3.0,7.0,65,0.00,,,0.00,weatherlink.com 1.10,2013-02-16 02:29:00,
2013-02-15 19:43:00,36.2,26.0,30.38,SSE,156,1.0,5.0,67,0.00,,,0.00,weatherlink.com 1.10,2013-02-16 02:43:00,
2013-02-15 19:58:00,35.9,27.0,30.39,SSE,168,1.0,5.0,69,0.00,,,0.00,weatherlink.com 1.10,2013-02-16 02:58:00,
2013-02-15 20:13:00,35.1,27.0,30.39,South,172,1.0,4.0,72,0.00,,,0.00,weatherlink.com 1.10,2013-02-16 03:13:00,
2013-02-15 20:28:00,34.6,27.0,30.40,South,174,0.0,3.0,74,0.00,,,0.00,weatherlink.com 1.10,2013-02-16 03:28:00,
2013-02-15 20:43:00,34.7,27.0,30.40,South,178,3.0,4.0,73,0.00,,,0.00,weatherlink.com 1.10,2013-02-16 03:43:00,
2013-02-15 20:59:00,34.8,27.0,30.41,South,179,2.0,5.0,73,0.00,,,0.00,weatherlink.com 1.10,2013-02-16 03:59:00,
2013-02-15 21:13:00,35.4,27.0,30.42,South,181,3.0,3.0,72,0.00,,,0.00,weatherlink.com 1.10,2013-02-16 04:13:00,
2013-02-15 21:29:00,35.6,27.0,30.42,South,181,4.0,4.0,72,0.00,,,0.00,weatherlink.com 1.10,2013-02-16 04:29:00,
2013-02-15 21:44:00,35.4,27.0,30.42,South,185,4.0,5.0,72,0.00,,,0.00,weatherlink.com 1.10,2013-02-16 04:44:00,
2013-02-15 21:59:00,34.9,27.0,30.42,SSW,206,2.0,7.0,73,0.00,,,0.00,weatherlink.com 1.10,2013-02-16 04:59:00,
2013-02-15 22:15:00,34.6,27.0,30.42,SSW,204,0.0,3.0,74,0.00,,,0.00,weatherlink.com 1.10,2013-02-16 05:15:00,
2013-02-15 22:29:00,34.7,27.0,30.42,SSW,206,3.0,6.0,74,0.00,,,0.00,weatherlink.com 1.10,2013-02-16 05:29:00,
2013-02-15 22:44:00,34.9,27.0,30.43,SSW,208,0.0,4.0,74,0.00,,,0.00,weatherlink.com 1.10,2013-02-16 05:44:00,
2013-02-15 22:59:00,34.8,27.0,30.45,NE,36,9.0,15.0,74,0.00,,,0.00,weatherlink.com 1.10,2013-02-16 05:59:00,
2013-02-15 23:14:00,37.7,27.0,30.44,SSW,195,0.0,4.0,65,0.00,,,0.00,weatherlink.com 1.10,2013-02-16 06:14:00,
2013-02-15 23:29:00,37.8,27.0,30.44,NE,41,0.0,3.0,64,0.00,,,0.00,weatherlink.com 1.10,2013-02-16 06:29:00,
2013-02-15 23:44:00,37.1,27.0,30.44,SE,135,0.0,2.0,66,0.00,,,0.00,weatherlink.com 1.10,2013-02-16 06:44:00,
2013-02-15 23:59:00,35.4,27.0,30.43,SE,135,0.0,1.0,70,0.00,,,0.00,weatherlink.com 1.10,2013-02-16 06:59:00,